Flag for Brazil Weather past 2 weeks in Rio de Janeiro, Rio de Janeiro, Brazil

Now
73 °F

Clear.


Feels Like: 73 °F
Forecast: N/A
Wind: 10 mph from South

Location: Rio De Janeiro Airport

Current Time: Aug 21, 2014 at 6:10:18 PM

Latest Report: Aug 21, 2014 at 5:00 PM


Visibility: 10 mi

Pressure: 30.07 "Hg

Humidity: 83%

Dew point: 68 °F

Location of Rio de JaneiroLocation

Historic Weather in Rio de Janeiro — Graph

°F

Rio de Janeiro temperature yesterday

Maximum temperature yesterday: 75 °F (at 1:00 PM)
Minimum temperature yesterday: 68 °F (at 6:00 AM)
Average temperature yesterday: 72 °F

Past Weeks' High & Low Weather Summary

 TemperatureHumidityPressure
High84 °F (Aug 12, 4:00 PM)100% (Aug 14, 12:00 PM)30.39 "Hg (Aug 14, 12:00 PM)
Low61 °F (Aug 7, 6:00 AM)47% (Aug 7, 12:00 PM)29.92 "Hg (Aug 12, 3:00 PM)
Average71 °F76%30.17 "Hg
* Reported Aug 6 5:00 PM — Aug 21 5:00 PM, Rio de Janeiro, Weather by CustomWeather, © 2014

Note: Actual official high and low records may vary slightly from our data, if they occured in-between our weather recording intervals... More about our weather records

Advertising

Rio de Janeiro weather history for previous 24 hours

 ConditionsComfort  
Time TempWeatherWind HumidityBarometerVisibility
5:00 PM
Aug 21
73 °FClear.10 mph83%30.07 "Hg10 mi
4:00 PM75 °FSunny.13 mph78%30.07 "Hg10 mi
3:00 PM75 °FPassing clouds.13 mph78%30.07 "HgN/A
2:00 PM75 °FPassing clouds.14 mph78%30.07 "HgN/A
1:00 PM73 °FPassing clouds.13 mph83%30.09 "HgN/A
12:00 PM75 °FPassing clouds.2 mph74%30.12 "Hg4 mi
11:00 AM72 °FFog.6 mph83%30.18 "Hg6 mi
10:00 AM70 °FFog.8 mph88%30.18 "Hg5 mi
9:00 AM70 °FFog.6 mph88%30.21 "Hg5 mi
8:00 AM70 °FPassing clouds.5 mph88%30.21 "Hg6 mi
7:00 AM68 °FPassing clouds.2 mph94%30.18 "Hg6 mi
6:00 AM66 °FScattered clouds.2 mph94%30.18 "Hg6 mi
11:00 PM
Aug 20
70 °FPassing clouds.3 mph88%30.24 "HgN/A
10:00 PM70 °FPassing clouds.3 mph88%30.24 "HgN/A
9:00 PM70 °FPassing clouds.5 mph88%30.24 "HgN/A
8:00 PM70 °FPassing clouds.9 mph88%30.21 "HgN/A
7:00 PM70 °FPassing clouds.12 mph83%30.21 "HgN/A
6:00 PM70 °FPassing clouds.14 mph83%30.18 "HgN/A
Weather by CustomWeather, © 2014

See weather overviewHow to use our weather pages